AirNav   Everest Fuels
 
 356 users online  

7NJ8 Merck & Co Heliport
Rahway, New Jersey, USA

GOING TO RAHWAY?


FAA INFORMATION EFFECTIVE 21 MAY 2020

Location

FAA Identifier: 7NJ8
Lat/Long: 40-36-34.0000N 074-15-36.0000W
40-36.566667N 074-15.600000W
40.6094444,-74.2600000
(estimated)
Elevation: 15 ft. / 5 m (estimated)
Variation: 12W (1985)
From city: 2 miles E of RAHWAY, NJ
Time zone: UTC -4 (UTC -5 during Standard Time)
Zip code: 07065

Heliport Operations

Heliport use: Private use. Permission required prior to landing
Activation date: 07/1989
Control tower: no
ARTCC: NEW YORK CENTER
FSS: MILLVILLE FLIGHT SERVICE STATION
Attendance: UNATNDD
Wind indicator: lighted
Segmented circle: no
Lights: SS-SR

Heliport Communications

WX AWOS-3 at LDJ (0.9 nm NE): 124.025 (908-862-7383)
WX ASOS at EWR (6 nm NE): PHONE 973-621-2892
WX AWOS-3PT at JRB (13 nm NE): 128.175 (212-425-1534)
WX AWOS-3 at MMU (13 nm NW): PHONE 973-290-0135
WX ASOS at CDW (16 nm N): 135.5 (973-575-4417)
WX ASOS at TEB (17 nm NE): 132.025 (201-393-0855)
WX ASOS at SMQ (19 nm W): 120.6 (908-722-2139)

Nearby radio navigation aids

VOR radial/distance  VOR name  Freq  Var
CRIr280/16.7CANARSIE VOR/DME112.3011W
TEBr223/16.9TETERBORO VOR/DME108.4011W
COLr357/18.4COLTS NECK VOR/DME115.4011W
LGAr252/20.6LA GUARDIA VOR/DME113.1012W
SBJr096/22.0SOLBERG VOR/DME112.9010W
JFKr278/22.3KENNEDY VOR/DME115.9012W
RBVr034/26.7ROBBINSVILLE VORTAC113.8010W
BWZr125/28.0BROADWAY VOR/DME114.2011W
SAXr166/30.3SPARTA VORTAC115.7011W
STWr141/36.1STILLWATER VOR/DME109.6011W
ARDr064/36.5YARDLEY VOR/DME108.2010W
GXUr035/39.2MC GUIRE VORTAC110.6012W

 
NDB name  Hdg/Dist  Freq  Var  ID
CHATHAM149/11.025413WCAT -.-. .- -
TORBY218/13.121412WTE - .
LAKEHURST017/34.039611WNEL -. . .-..

Heliport Services

Runway Information

Helipad H1

Dimensions: 50 x 50 ft. / 15 x 15 m
Surface: concrete
Runway edge lights: PERI
Operational restrictions: INGRESS 235 DEG; EGRESS 230 DEG.
Latitude: 40-36.566667N
Longitude: 074-15.600000W
Elevation: 15.0 ft.
Traffic pattern: leftleft

Heliport Ownership and Management from official FAA records

Ownership: Privately-owned
Owner: MERCK & COMPANY INC
100 SAM WEINROTH ROAD
WEST TRENTON, NJ 08628
Phone 609-771-8790
Manager: NADINE FETSKO
100 SAM WEINROTH ROAD
WEST TRENTON, NJ 08628
Phone 609-771-8790

Additional Remarks

A52-H1 30 FT PLINES MARKED 100 FT E OF HELIPAD.
PRIOR PERMISSION REQUIRED; FOR USE CALL 609-771-8790 OPTION 1.
NOISE SENSITIVE AREA.
FOR CD CTC NEW YORK APCH AT 800-645-3206.

Instrument Procedures

There are no published instrument procedures at 7NJ8.

Some nearby airports with instrument procedures:

KLDJ - Linden Airport (1 nm NE)
KEWR - Newark Liberty International Airport (6 nm NE)
KJRB - Downtown Manhattan/Wall Street Heliport (13 nm NE)
KMMU - Morristown Municipal Airport (13 nm NW)
KJRA - West 30th St Heliport (14 nm NE)
6N5 - East 34th Street Heliport (15 nm NE)
KCDW - Essex County Airport (16 nm N)
47N - Central Jersey Regional Airport (16 nm W)
KTEB - Teterboro Airport (17 nm NE)
3N6 - Old Bridge Airport (17 nm S)
 
Loc | Ops | Rwys | IFR | FBO | Links
Com | Nav | Svcs | Stats | Notes
Area around 7NJ8 (Merck & Co Heliport)
 
Road maps at: MapQuest Bing Google
 
Aerial photo
No photo
 
Sectional chart

 
Airport distance calculator
Flying to Merck & Co Heliport? Find the distance to fly.

From to 7NJ8

Sunrise and sunset
Times for 07-Jun-2020
 Local
(UTC-4)
 Zulu
(UTC)
Morning civil twilight04:5408:54
Sunrise05:2709:27
Sunset20:2500:25
Evening civil twilight20:5800:58

Current date and time
Zulu (UTC)  07-Jun-2020 07:32:36
Local (UTC-4)  07-Jun-2020 03:32:36
 
METAR
KLDJ 070715Z AUTO 00000KT 10SM CLR 19/09 A2983 RMK AO2 T01920088
KEWR 
6nm NE 
070651Z 34017G22KT 10SM FEW120 SCT250 21/09 A2982 RMK AO2 SLP096 T02110089
KMMU 
13nm NW 
070715Z AUTO 32004KT 10SM CLR 18/09 A2985 RMK AO2
KJRB 
13nm NE 
070656Z AUTO VRB04KT 10SM CLR 21/10 A2982 RMK AO2 SLP097 T02060100
KCDW 
16nm N 
070653Z AUTO 00000KT 10SM CLR 20/09 A2984 RMK AO2 SLP109 T02000089
KNYC 
17nm NE 
070651Z AUTO 10SM FEW110 21/08 A2984 RMK AO2 SLP095 T02060083 $
KTEB 
18nm NE 
070651Z 33009KT 10SM CLR 19/09 A2981 RMK AO2 SLP094 T01940094
KSMQ 
19nm W 
ASOS 120.60 908-722-2139
070653Z AUTO 00000KT 10SM CLR 14/11 A2983 RMK AO2 SLP100 T01390111
TAF
KEWR 
6nm NE 
070525Z 0706/0812 34010KT P6SM SKC FM071400 33014G22KT P6SM SCT060 FM080000 34010KT P6SM SCT060 FM080300 34006KT P6SM SKC
KTEB 
18nm NE 
070525Z 0706/0812 33005KT P6SM SKC FM071400 33012G20KT P6SM SCT060 FM072200 34008KT P6SM SCT060 FM080200 34004KT P6SM SKC
NOTAMs
Click for the latest NOTAMs
NOTAMs are issued by the DoD/FAA and will open in a separate window not controlled by AirNav.

 

 
 

Would you like to see your business listed on this page?

 If your business provides an interesting product or service to pilots, flight crews, aircraft, or users of the Merck & Co Heliport, you should consider listing it here.  To start the listing process, click on the button below
 
Add a business
 

Other Pages about Merck & Co Heliport

Update a link
 
Copyright © AirNav, LLC. All rights reserved. Privacy Policy  Contact